K9MWD Weather Reports


time (UTC)temp
F
wind
direction
speed
knots
gust
knots
rain 1hr
in
rain 24hr
in
rain mn
in
humidity
%
barometer
mb
20260505210522 86 187 6.1 7.8 0.00 0.00 0.00 64 1004.7
20260505210019 88 178 7.8 9.6 0.00 0.00 0.00 63 1004.7
20260505205517 87 153 4.3 6.1 0.00 0.00 0.00 64 1004.8
20260505205014 88 174 5.2 7.0 0.00 0.00 0.00 63 1004.9
20260505204512 87 206 3.5 6.1 0.00 0.00 0.00 64 1005.0
20260505204009 86 174 7.0 8.7 0.00 0.00 0.00 65 1005.1
20260505203505 87 254 7.8 13.0 0.00 0.00 0.00 64 1005.0
20260505203001 87 202 4.3 7.0 0.00 0.00 0.00 64 1005.0
20260505202458 87 213 4.3 6.1 0.00 0.00 0.00 64 1005.2
20260505201954 87 172 5.2 7.0 0.00 0.00 0.00 65 1005.3
20260505201451 86 183 6.1 7.8 0.00 0.00 0.00 65 1005.4
20260505200949 86 154 7.0 9.6 0.00 0.00 0.00 65 1005.4
20260505200447 86 192 5.2 8.7 0.00 0.00 0.00 65 1005.2
20260505195942 86 202 4.3 6.1 0.00 0.00 0.00 66 1005.5
20260505195440 86 233 4.3 5.2 0.00 0.00 0.00 66 1005.5
20260505194937 86 202 5.2 6.1 0.00 0.00 0.00 66 1005.2
20260505194434 85 202 7.8 11.3 0.00 0.00 0.00 66 1005.4
20260505193934 86 222 5.2 6.1 0.00 0.00 0.00 67 1005.4
20260505193432 86 181 4.3 6.1 0.00 0.00 0.00 66 1005.5
20260505192930 85 173 6.1 7.8 0.00 0.00 0.00 67 1005.5
20260505192428 84 168 6.1 8.7 0.00 0.00 0.00 67 1005.3
20260505191925 85 168 7.0 7.8 0.00 0.00 0.00 67 1005.5
20260505191424 85 168 4.3 6.1 0.00 0.00 0.00 67 1005.6
20260505190920 85 185 4.3 6.1 0.00 0.00 0.00 66 1005.6
20260505190415 84 223 7.0 8.7 0.00 0.00 0.00 67 1005.6
20260505185911 85 81 6.1 8.7 0.00 0.00 0.00 67 1005.8
20260505185408 85 193 4.3 5.2 0.00 0.00 0.00 66 1005.9
20260505184904 84 232 5.2 7.0 0.00 0.00 0.00 67 1005.8
20260505184401 84 246 6.1 7.8 0.00 0.00 0.00 67 1006.0
20260505183858 84 205 8.7 9.6 0.00 0.00 0.00 68 1006.1
20260505183355 83 189 5.2 7.8 0.00 0.00 0.00 69 1006.1
20260505182852 82 239 6.1 8.7 0.00 0.00 0.00 70 1006.1
20260505182348 82 205 6.1 7.8 0.00 0.00 0.00 69 1005.9
20260505181845 82 173 6.1 7.8 0.00 0.00 0.00 69 1006.2
20260505181342 82 217 5.2 7.8 0.00 0.00 0.00 70 1006.0
20260505180839 82 201 4.3 6.1 0.00 0.00 0.00 69 1006.1
20260505180335 82 193 11.3 14.8 0.00 0.00 0.00 69 1006.0
20260505175832 82 242 7.8 9.6 0.00 0.00 0.00 71 1006.0
20260505175328 81 189 6.1 7.0 0.00 0.00 0.00 72 1005.8
20260505174825 81 195 7.0 13.0 0.00 0.00 0.00 72 1005.8
20260505174322 81 203 8.7 9.6 0.00 0.00 0.00 72 1006.0
20260505173818 81 193 3.5 6.1 0.00 0.00 0.00 71 1005.9
20260505173315 80 181 6.1 8.7 0.00 0.00 0.00 72 1006.2
20260505172813 80 172 10.4 13.9 0.00 0.00 0.00 71 1006.2
20260505172310 81 59 7.0 8.7 0.00 0.00 0.00 72 1006.0
20260505171804 80 204 4.3 5.2 0.00 0.00 0.00 72 1006.3
20260505171301 80 179 7.0 8.7 0.00 0.00 0.00 73 1006.0
20260505170757 80 187 3.5 6.1 0.00 0.00 0.00 73 1006.0
20260505170255 79 178 11.3 14.8 0.00 0.00 0.00 73 1006.1
20260505165749 79 246 7.8 9.6 0.00 0.00 0.00 73 1006.0
20260505165246 79 186 6.1 8.7 0.00 0.00 0.00 74 1005.9
20260505164741 79 211 6.1 8.7 0.00 0.00 0.00 73 1005.9
20260505164239 79 232 7.8 9.6 0.00 0.00 0.00 73 1006.2
20260505163737 80 187 6.1 7.0 0.00 0.00 0.00 73 1006.3
20260505163235 78 220 6.1 8.7 0.00 0.00 0.00 74 1006.2
20260505162732 79 202 6.1 8.7 0.00 0.00 0.00 74 1006.3
20260505162229 79 184 10.4 14.8 0.00 0.00 0.00 73 1005.9
20260505161726 78 239 7.0 8.7 0.00 0.00 0.00 74 1006.0
20260505161224 78 186 8.7 9.6 0.00 0.00 0.00 75 1006.1
20260505160721 78 179 5.2 7.8 0.00 0.00 0.00 75 1006.3
20260505160219 78 168 11.3 13.9 0.00 0.00 0.00 75 1006.1
20260505153157 76 186 8.7 12.2 0.00 0.00 0.00 78 1006.2
20260505152654 76 180 13.9 19.1 0.00 0.00 0.00 78 1006.1
20260505152150 76 233 7.0 9.6 0.00 0.00 0.00 78 1006.4
20260505151646 76 196 7.8 9.6 0.00 0.00 0.00 78 1006.2
20260505151143 75 183 8.7 11.3 0.00 0.00 0.00 78 1006.3
20260505150639 75 184 12.2 15.6 0.00 0.00 0.00 78 1006.6
20260505150137 75 198 7.0 8.7 0.00 0.00 0.00 79 1006.3
20260505140605 74 183 7.0 8.7 0.00 0.00 0.00 81 1006.0
20260505125018 71 139 6.1 8.7 0.00 0.00 0.00 85 1005.5
20260505124515 71 203 8.7 12.2 0.00 0.00 0.00 85 1005.5
20260505124011 71 157 7.0 7.0 0.00 0.00 0.00 85 1005.6
20260505123508 71 245 3.5 5.2 0.00 0.00 0.00 85 1005.4
20260505123004 70 199 11.3 13.0 0.00 0.00 0.00 85 1005.3
20260505122501 70 173 6.1 9.6 0.00 0.00 0.00 85 1005.2
20260505121958 70 173 6.1 7.8 0.00 0.00 0.00 85 1005.1
20260505121455 70 220 5.2 7.0 0.00 0.00 0.00 85 1005.1
20260505120951 70 198 7.8 11.3 0.00 0.00 0.00 85 1005.1
20260505120447 70 169 1.7 2.6 0.00 0.00 0.00 85 1005.3
20260505115946 70 207 7.8 13.0 0.00 0.00 0.00 85 1005.0
20260505115443 70 179 5.2 5.2 0.00 0.00 0.00 85 1005.1
20260505114941 70 185 4.3 7.8 0.00 0.00 0.00 85 1005.2
20260505114432 70 217 5.2 7.0 0.00 0.00 0.00 85 1005.0
20260505113929 70 199 6.1 7.8 0.00 0.00 0.00 85 1005.1
20260505113425 70 163 6.1 11.3 0.00 0.00 0.00 85 1005.0
20260505112921 70 205 7.0 8.7 0.00 0.00 0.00 85 1005.0
20260505112419 70 187 5.2 7.8 0.00 0.00 0.00 85 1005.2
20260505111915 70 169 6.1 9.6 0.00 0.00 0.00 85 1005.2
20260505111409 70 196 7.8 9.6 0.00 0.00 0.00 85 1005.1
20260505110906 70 166 7.0 9.6 0.00 0.00 0.00 85 1004.9
20260505110403 70 196 9.6 11.3 0.00 0.00 0.00 85 1004.7
20260505101833 70 179 5.2 7.8 0.00 0.00 0.00 85 1005.1
20260505101329 70 140 2.6 5.2 0.00 0.00 0.00 85 1004.9
20260505100825 70 166 3.5 5.2 0.00 0.00 0.00 85 1005.0
20260505100321 70 230 7.8 7.8 0.00 0.00 0.00 84 1004.9
20260505095817 70 190 3.5 5.2 0.00 0.00 0.00 84 1004.9
20260505095315 70 208 3.5 4.3 0.00 0.00 0.00 84 1005.1
20260505094810 70 174 7.8 8.7 0.00 0.00 0.00 84 1005.2
20260505094308 70 180 10.4 13.0 0.00 0.00 0.00 84 1005.1
20260505093803 70 191 7.8 11.3 0.00 0.00 0.00 84 1005.4
20260505093301 70 211 5.2 6.1 0.00 0.00 0.00 84 1005.2
20260505092757 70 191 5.2 6.1 0.00 0.00 0.00 84 1005.5
20260505092256 70 181 7.8 9.6 0.00 0.00 0.00 84 1005.3
20260505091753 70 188 7.8 9.6 0.00 0.00 0.00 84 1005.3
20260505091251 70 152 4.3 6.1 0.00 0.00 0.00 84 1005.3
20260505090749 70 219 11.3 15.6 0.00 0.00 0.00 83 1005.1
20260505090247 71 212 7.0 7.8 0.00 0.00 0.00 83 1005.4
20260505085744 71 211 6.1 7.8 0.00 0.00 0.00 83 1005.3
20260505085242 71 159 10.4 13.9 0.00 0.00 0.00 83 1005.1
20260505084739 71 210 7.8 9.6 0.00 0.00 0.00 83 1005.2
20260505084238 71 198 5.2 6.1 0.00 0.00 0.00 83 1005.2
20260505083734 71 167 7.8 9.6 0.00 0.00 0.00 83 1005.2
20260505083231 71 211 9.6 14.8 0.00 0.00 0.00 83 1005.2
20260505082727 71 194 4.3 7.8 0.00 0.00 0.00 83 1005.4
20260505082225 71 207 4.3 6.1 0.00 0.00 0.00 83 1005.1
20260505081720 71 191 7.8 8.7 0.00 0.00 0.00 83 1005.5
20260505081218 71 182 5.2 7.0 0.00 0.00 0.00 83 1005.3
20260505080715 71 191 7.0 8.7 0.00 0.00 0.00 83 1005.4
20260505080210 71 140 10.4 13.0 0.00 0.00 0.00 83 1005.8
20260505075706 70 210 10.4 14.8 0.00 0.00 0.00 83 1005.7
20260505075204 70 175 6.1 8.7 0.00 0.00 0.00 84 1005.7
20260505074701 70 231 10.4 13.9 0.00 0.00 0.00 84 1005.8
20260505074157 70 195 5.2 6.1 0.00 0.00 0.00 84 1005.8
20260505073655 70 213 5.2 7.0 0.00 0.00 0.00 84 1006.1
20260505073153 70 202 4.3 7.8 0.00 0.00 0.00 84 1005.8
20260505072648 70 182 6.1 7.0 0.00 0.00 0.00 84 1006.2
20260505072145 70 122 6.1 9.6 0.00 0.00 0.00 83 1006.4
20260505071641 70 137 6.1 7.8 0.00 0.00 0.00 83 1006.3
20260505071139 70 170 7.8 9.6 0.00 0.00 0.00 83 1006.4
20260505070636 70 180 6.1 8.7 0.00 0.00 0.00 83 1006.4
20260505070132 70 128 4.3 6.1 0.00 0.00 0.00 83 1006.5
20260505065628 70 219 7.8 8.7 0.00 0.00 0.00 83 1006.5
20260505065125 71 77 7.0 12.2 0.00 0.00 0.00 83 1006.7
20260505064622 71 219 4.3 6.1 0.00 0.00 0.00 82 1006.8
20260505064120 71 169 5.2 7.0 0.00 0.00 0.00 82 1006.8
20260505063617 71 174 8.7 11.3 0.00 0.00 0.00 82 1006.7
20260505063113 71 259 8.7 12.2 0.00 0.00 0.00 82 1006.8
20260505062609 71 136 6.1 8.7 0.00 0.00 0.00 82 1006.9
20260505062107 71 243 5.2 7.0 0.00 0.00 0.00 81 1006.8
20260505061604 71 179 7.0 8.7 0.00 0.00 0.00 81 1006.7
20260505061102 71 203 8.7 11.3 0.00 0.00 0.00 81 1006.8
20260505060559 71 184 7.0 8.7 0.00 0.00 0.00 81 1006.7
20260505060056 71 221 7.8 13.0 0.00 0.00 0.00 81 1006.7
20260505055551 71 199 4.3 6.1 0.00 0.00 0.00 81 1006.8
20260505055048 71 169 7.8 9.6 0.00 0.00 0.00 81 1006.7
20260505054545 71 246 6.1 8.7 0.00 0.00 0.00 80 1006.6
20260505054043 72 201 5.2 7.8 0.00 0.00 0.00 80 1006.9
20260505053540 72 180 4.3 6.1 0.00 0.00 0.00 80 1007.1
20260505053037 72 197 9.6 11.3 0.00 0.00 0.00 80 1007.0
20260505052534 72 187 7.0 7.8 0.00 0.00 0.00 79 1007.1
20260505052032 72 204 6.1 7.8 0.00 0.00 0.00 79 1007.0
20260505051528 72 198 6.1 7.0 0.00 0.00 0.00 79 1006.9
20260505051026 72 140 5.2 7.0 0.00 0.00 0.00 79 1007.0
20260505050524 72 184 5.2 8.7 0.00 0.00 0.00 79 1007.0
20260505041452 73 193 5.2 6.1 0.00 0.00 0.00 77 1007.4
20260505040949 73 197 4.3 7.0 0.00 0.00 0.00 77 1007.2
20260505040446 73 210 4.3 7.0 0.00 0.00 0.00 76 1007.3
20260505035943 73 176 5.2 6.1 0.00 0.00 0.00 76 1007.4
20260505035439 73 197 2.6 2.6 0.00 0.00 0.00 76 1007.2
20260505034936 73 203 4.3 6.1 0.00 0.00 0.00 76 1007.2
20260505034433 73 106 2.6 2.6 0.00 0.00 0.00 76 1007.3
20260505033930 73 129 2.6 2.6 0.00 0.00 0.00 76 1007.2
20260505033426 73 102 2.6 5.2 0.00 0.00 0.00 75 1007.2
20260505032925 73 154 3.5 4.3 0.00 0.00 0.00 75 1007.2
20260505032422 73 191 5.2 7.0 0.00 0.00 0.00 75 1007.2
20260505031918 73 150 5.2 7.0 0.00 0.00 0.00 75 1007.3
20260505031415 73 232 5.2 7.0 0.00 0.00 0.00 75 1007.6
20260505030912 73 181 2.6 4.3 0.00 0.00 0.00 75 1007.3
20260505030408 73 229 1.7 2.6 0.00 0.00 0.00 75 1007.4
20260505025903 73 164 2.6 2.6 0.00 0.00 0.00 75 1007.2
20260505025401 73 148 2.6 4.3 0.00 0.00 0.00 75 1007.0
20260505024900 73 187 3.5 4.3 0.00 0.00 0.00 75 1007.0
20260505024357 73 164 4.3 6.1 0.00 0.00 0.00 74 1006.9
20260505023854 73 146 4.3 6.1 0.00 0.00 0.00 74 1006.9
20260505023351 74 185 5.2 7.0 0.00 0.00 0.00 74 1007.0
20260505022848 74 178 1.7 2.6 0.00 0.00 0.00 74 1007.0
20260505022345 74 177 3.5 5.2 0.00 0.00 0.00 74 1007.0
20260505021842 74 284 4.3 6.1 0.00 0.00 0.00 73 1006.9
20260505021339 74 187 6.1 7.8 0.00 0.00 0.00 73 1006.7
20260505020834 74 81 1.7 2.6 0.00 0.00 0.00 73 1006.8
20260505020330 74 160 2.6 4.3 0.00 0.00 0.00 73 1006.7
20260505015827 74 192 2.6 2.6 0.00 0.00 0.00 72 1006.7
20260505015324 74 135 2.6 5.2 0.00 0.00 0.00 72 1007.0
20260505014822 75 152 2.6 6.1 0.00 0.00 0.00 72 1006.7
20260505014319 75 112 3.5 5.2 0.00 0.00 0.00 72 1006.9
20260505013815 75 147 2.6 4.3 0.00 0.00 0.00 71 1006.9
20260505013312 75 162 3.5 5.2 0.00 0.00 0.00 70 1006.8
20260505012811 75 135 3.5 7.0 0.00 0.00 0.00 70 1006.9
20260505012308 75 209 3.5 6.1 0.00 0.00 0.00 69 1006.9
20260505011804 75 92 4.3 5.2 0.00 0.00 0.00 69 1006.7
20260505011301 75 175 2.6 4.3 0.00 0.00 0.00 70 1006.6
20260505010757 76 163 7.0 7.8 0.00 0.00 0.00 70 1006.7
20260505010253 76 179 3.5 4.3 0.00 0.00 0.00 70 1006.7
20260505005749 76 174 4.3 5.2 0.00 0.00 0.00 69 1006.8
20260505005246 76 237 2.6 4.3 0.00 0.00 0.00 68 1006.8
20260505004744 77 139 8.7 13.9 0.00 0.00 0.00 68 1006.7
20260505004240 77 219 9.6 11.3 0.00 0.00 0.00 67 1006.9
20260505003737 77 190 5.2 7.0 0.00 0.00 0.00 67 1006.9
20260505003235 77 186 6.1 7.8 0.00 0.00 0.00 67 1007.0
20260505002731 77 160 6.1 7.0 0.00 0.00 0.00 67 1007.1
20260505002228 77 205 3.5 5.2 0.00 0.00 0.00 66 1007.1
20260505001726 78 174 4.3 6.1 0.00 0.00 0.00 66 1007.2
20260505001223 78 216 3.5 5.2 0.00 0.00 0.00 66 1007.4
20260505000720 78 139 7.0 9.6 0.00 0.00 0.00 65 1007.3
20260505000219 78 180 9.6 12.2 0.00 0.00 0.00 65 1007.2
20260504235714 78 225 4.3 6.1 0.00 0.00 0.00 65 1007.1
20260504235210 78 195 7.8 12.2 0.00 0.00 0.00 64 1007.2
20260504234708 78 204 6.1 8.7 0.00 0.00 0.00 64 1007.1
20260504234205 79 226 4.3 6.1 0.00 0.00 0.00 63 1007.3
20260504233701 79 104 11.3 13.9 0.00 0.00 0.00 63 1007.5
20260504233157 79 130 6.1 8.7 0.00 0.00 0.00 63 1007.3
20260504232654 79 192 5.2 7.8 0.00 0.00 0.00 63 1007.5
20260504232151 79 197 11.3 13.0 0.00 0.00 0.00 62 1007.6
20260504231648 79 205 11.3 13.0 0.00 0.00 0.00 62 1007.5
20260504231144 79 174 6.1 8.7 0.00 0.00 0.00 62 1007.3
20260504230641 79 183 8.7 11.3 0.00 0.00 0.00 62 1007.6
20260504230140 79 179 8.7 11.3 0.00 0.00 0.00 62 1007.7
20260504225638 80 183 5.2 7.0 0.00 0.00 0.00 61 1007.8
20260504225133 80 202 7.0 7.8 0.00 0.00 0.00 61 1007.6
20260504224630 80 224 7.8 8.7 0.00 0.00 0.00 61 1007.8
20260504224127 80 163 9.6 12.2 0.00 0.00 0.00 60 1007.8
20260504223624 81 178 6.1 7.8 0.00 0.00 0.00 60 1008.1
20260504223120 80 238 4.3 7.0 0.00 0.00 0.00 61 1007.9
20260504222617 80 194 9.6 12.2 0.00 0.00 0.00 60 1007.8
20260504222114 80 197 3.5 5.2 0.00 0.00 0.00 61 1007.9
20260504221611 80 251 9.6 11.3 0.00 0.00 0.00 61 1007.8
20260504221108 80 209 6.1 7.8 0.00 0.00 0.00 60 1007.9
20260504220604 80 177 8.7 11.3 0.00 0.00 0.00 61 1008.1
20260504215558 80 351 8.7 11.3 0.00 0.00 0.00 59 1008.2
20260504215056 80 170 11.3 13.9 0.00 0.00 0.00 59 1008.1
20260504214551 81 199 6.1 7.8 0.00 0.00 0.00 59 1008.2
20260504214048 80 42 9.6 12.2 0.00 0.00 0.00 59 1008.2
20260504213544 80 312 7.0 9.6 0.00 0.00 0.00 59 1008.4
20260504213042 80 116 10.4 12.2 0.00 0.00 0.00 60 1008.6
20260504212537 81 202 7.8 12.2 0.00 0.00 0.00 58 1008.6
20260504212035 81 169 7.8 11.3 0.00 0.00 0.00 59 1008.6
20260504211532 81 206 4.3 7.0 0.00 0.00 0.00 58 1008.6
20260504211029 81 182 7.8 9.6 0.00 0.00 0.00 58 1008.6